Date String (YYYY-MM-DD hh:mm:ss) UTC,Instrument flags,Ambient pressure (hPa),Sample flow (lpm),Bypass flow (lpm),Sample temperature (°C),Ambient temperature (°C),ASC tube jacket temperature (°C),LED temperature (°C),Box temperature (°C),Sample RH (%),Span deviation,Mass concentration (μg/m³),Mass concentration (μg/m³),Mass concentration (μg/m³)
DateTimeUTC,F1_M11,P_M11,Q1_M11,Q2_M11,T1_M11,T2_M11,T3_M11,T4_M11,T5_M11,U1_M11,ZSPAN_M11,X0_M11,X2_M11,X1_M11
2022-03-09 23:00:00,,0822.1,4.99,0.00,22.2,21.4,00.0,31.4,23.8,06.6,0000.0,0004.02,0002.85,0002.39
2022-03-09 23:01:00,,0821.9,5.00,0.00,22.3,22.0,00.0,31.4,24.0,06.6,0000.0,0004.04,0002.86,0002.40
2022-03-09 23:02:00,,0821.8,5.01,0.00,22.4,22.8,00.0,31.5,24.2,06.6,0000.0,0004.03,0002.87,0002.41
2022-03-09 23:03:00,,0821.8,5.00,0.00,22.6,23.1,00.0,31.5,24.4,06.5,0000.0,0004.09,0002.90,0002.41
2022-03-09 23:04:00,,0821.8,5.00,0.00,22.6,22.9,00.0,31.5,24.4,06.5,0000.0,0004.75,0002.92,0002.38
2022-03-09 23:05:00,,0821.8,5.00,0.00,22.5,22.5,00.0,31.5,24.2,06.5,0000.0,0004.94,0002.92,0002.38
2022-03-09 23:06:00,,0821.8,5.00,0.00,22.5,22.2,00.0,31.5,24.1,06.6,0000.0,0004.96,0002.93,0002.38
2022-03-09 23:07:00,,0821.7,4.99,0.00,22.4,22.0,00.0,31.5,24.0,06.6,0000.0,0004.81,0002.90,0002.39
2022-03-09 23:08:00,,0821.7,4.99,0.00,22.4,21.8,00.0,31.5,23.9,06.7,0000.0,0004.84,0002.91,0002.40
2022-03-09 23:09:00,,0821.7,4.99,0.00,22.3,21.6,00.0,31.4,23.8,06.7,0000.0,0004.91,0002.90,0002.39
2022-03-09 23:10:00,,0821.6,5.00,0.00,22.2,21.5,00.0,31.4,23.8,06.8,0000.0,0004.96,0002.89,0002.40
2022-03-09 23:11:00,,0821.7,5.01,0.00,22.2,21.4,00.0,31.4,23.7,06.8,0000.0,0004.94,0002.87,0002.41
2022-03-09 23:12:00,,0821.8,5.00,0.00,22.2,21.8,00.0,31.4,23.8,06.8,0000.0,0005.14,0002.95,0002.42
2022-03-09 23:13:00,,0821.8,4.99,0.00,22.3,22.6,00.0,31.4,24.1,06.7,0000.0,0005.33,0002.98,0002.43
2022-03-09 23:14:00,,0822.1,4.99,0.00,22.5,23.2,00.0,31.5,24.4,06.6,0000.0,0005.29,0002.96,0002.43
2022-03-09 23:15:00,,0821.8,5.01,0.00,22.6,22.9,00.0,31.5,24.4,06.6,0000.0,0004.57,0002.94,0002.45
2022-03-09 23:16:00,,0821.9,5.00,0.00,22.5,22.6,00.0,31.5,24.3,06.5,0000.0,0004.31,0002.92,0002.46
2022-03-09 23:17:00,,0821.8,4.99,0.00,22.5,22.3,00.0,31.5,24.1,06.5,0000.0,0004.78,0002.97,0002.47
2022-03-09 23:18:00,,0822.0,5.00,0.00,22.4,22.0,00.0,31.5,24.0,06.5,0000.0,0004.84,0003.01,0002.49
2022-03-09 23:19:00,,0822.0,5.02,0.00,22.3,21.8,00.0,31.5,23.9,06.6,0000.0,0004.94,0003.05,0002.51
2022-03-09 23:20:00,,0822.1,4.98,0.00,22.3,21.6,00.0,31.4,23.8,06.6,0000.0,0005.31,0003.12,0002.54
2022-03-09 23:21:00,,0822.1,4.98,0.00,22.2,21.4,00.0,31.4,23.7,06.6,0000.0,0005.39,0003.15,0002.56
2022-03-09 23:22:00,,0822.1,5.01,0.00,22.1,21.4,00.0,31.4,23.7,06.7,0000.0,0005.82,0003.18,0002.58
2022-03-09 23:23:00,,0822.1,4.98,0.00,22.2,22.1,00.0,31.4,23.9,06.7,0000.0,0005.88,0003.17,0002.61
2022-03-09 23:24:00,,0822.1,5.02,0.00,22.4,22.9,00.0,31.4,24.2,06.6,0000.0,0005.81,0003.16,0002.63
2022-03-09 23:25:00,,0822.1,4.99,0.00,22.5,23.1,00.0,31.5,24.4,06.6,0000.0,0005.86,0003.17,0002.65
2022-03-09 23:26:00,,0822.1,4.99,0.00,22.5,22.8,00.0,31.5,24.3,06.6,0000.0,0005.89,0003.18,0002.69
2022-03-09 23:27:00,,0822.2,5.00,0.00,22.5,22.5,00.0,31.5,24.2,06.7,0000.0,0006.00,0003.19,0002.69
2022-03-09 23:28:00,,0822.3,5.00,0.00,22.4,22.2,00.0,31.4,24.0,06.6,0000.0,0005.68,0003.19,0002.70
2022-03-09 23:29:00,,0822.3,5.01,0.00,22.4,21.9,00.0,31.4,23.9,06.5,0000.0,0005.48,0003.17,0002.68
2022-03-09 23:30:00,,0822.3,5.01,0.00,22.3,21.7,00.0,31.4,23.8,06.4,0000.0,0005.64,0003.17,0002.66
2022-03-09 23:31:00,,0822.3,4.99,0.00,22.2,21.5,00.0,31.4,23.7,06.3,0000.0,0005.32,0003.14,0002.63
2022-03-09 23:32:00,,0822.4,4.99,0.00,22.1,21.4,00.0,31.4,23.6,06.3,0000.0,0005.08,0003.09,0002.61
2022-03-09 23:33:00,,0822.3,5.00,0.00,22.2,21.9,00.0,31.4,23.8,06.2,0000.0,0004.89,0003.03,0002.58
2022-03-09 23:34:00,,0822.3,5.01,0.00,22.3,22.7,00.0,31.4,24.1,06.2,0000.0,0004.74,0002.98,0002.54
2022-03-09 23:35:00,,0822.3,5.00,0.00,22.5,23.3,00.0,31.5,24.4,06.2,0000.0,0004.62,0002.93,0002.50
2022-03-09 23:36:00,,0822.2,4.99,0.00,22.6,23.2,00.0,31.5,24.5,06.2,0000.0,0004.53,0002.90,0002.48
2022-03-09 23:37:00,,0822.0,5.01,0.00,22.6,22.8,00.0,31.5,24.4,06.2,0000.0,0004.43,0002.87,0002.46
2022-03-09 23:38:00,,0822.1,5.00,0.00,22.5,22.5,00.0,31.5,24.2,06.2,0000.0,0004.26,0002.83,0002.44
2022-03-09 23:39:00,,0822.1,5.01,0.00,22.4,22.1,00.0,31.5,24.0,06.2,0000.0,0004.26,0002.82,0002.44
2022-03-09 23:40:00,,0822.0,5.00,0.00,22.4,21.9,00.0,31.4,23.9,06.3,0000.0,0004.27,0002.81,0002.44
2022-03-09 23:41:00,,0822.1,4.99,0.00,22.3,21.7,00.0,31.4,23.8,06.2,0000.0,0004.10,0002.78,0002.44
2022-03-09 23:42:00,,0822.1,5.01,0.00,22.2,21.4,00.0,31.4,23.7,06.2,0000.0,0004.04,0002.77,0002.46
2022-03-09 23:43:00,,0822.0,4.98,0.00,22.2,21.3,00.0,31.4,23.6,06.3,0000.0,0004.07,0002.79,0002.47
2022-03-09 23:44:00,,0822.1,5.00,0.00,22.2,21.8,00.0,31.4,23.8,06.3,0000.0,0003.91,0002.80,0002.47
2022-03-09 23:45:00,,0822.1,4.99,0.00,22.3,22.6,00.0,31.4,24.1,06.2,0000.0,0003.68,0002.80,0002.48
2022-03-09 23:46:00,,0822.1,5.00,0.00,22.5,23.3,00.0,31.5,24.4,06.2,0000.0,0003.70,0002.80,0002.47
2022-03-09 23:47:00,,0822.1,5.00,0.00,22.6,23.4,00.0,31.5,24.5,06.1,0000.0,0003.86,0002.86,0002.47
2022-03-09 23:48:00,,0822.1,5.01,0.00,22.6,23.0,00.0,31.5,24.4,06.1,0000.0,0004.05,0002.94,0002.49
2022-03-09 23:49:00,,0822.1,5.00,0.00,22.6,22.6,00.0,31.5,24.3,06.1,0000.0,0004.20,0002.98,0002.50
2022-03-09 23:50:00,,0822.1,5.00,0.00,22.5,22.3,00.0,31.5,24.2,06.2,0000.0,0004.16,0002.96,0002.50
2022-03-09 23:51:00,,0822.0,4.99,0.00,22.5,22.1,00.0,31.5,24.1,06.2,0000.0,0004.38,0002.98,0002.52
2022-03-09 23:52:00,,0821.9,5.00,0.00,22.4,21.8,00.0,31.5,24.0,06.3,0000.0,0004.74,0003.01,0002.55
2022-03-09 23:53:00,,0821.9,5.01,0.00,22.3,21.6,00.0,31.4,23.8,06.3,0000.0,0004.86,0003.04,0002.56
2022-03-09 23:54:00,,0822.0,5.00,0.00,22.3,21.5,00.0,31.4,23.8,06.3,0000.0,0004.89,0003.05,0002.56
2022-03-09 23:55:00,,0822.1,4.99,0.00,22.2,21.4,00.0,31.4,23.7,06.3,0000.0,0004.96,0003.06,0002.56
2022-03-09 23:56:00,,0822.1,5.00,0.00,22.2,21.7,00.0,31.4,23.8,06.3,0000.0,0005.13,0003.12,0002.58
2022-03-09 23:57:00,,0822.1,5.00,0.00,22.3,22.4,00.0,31.4,24.1,06.2,0000.0,0005.09,0003.11,0002.59
2022-03-09 23:58:00,,0822.1,5.00,0.00,22.5,23.1,00.0,31.5,24.3,06.1,0000.0,0004.91,0003.08,0002.59
2022-03-09 23:59:00,,0822.1,4.99,0.00,22.6,23.0,00.0,31.5,24.4,06.0,0000.0,0004.74,0003.00,0002.59
